Location: �chenoz-la-M�line
(47.6009°N, 6.1354°E)
Time: 13:06:04
(UTC+00:00)

Cosmos 2034 Rocket - Pass Details

Date: 27 January 2021
Orbit: 957 x 1001 km, 82.9° (Epoch: 02 March)

Event Time Altitude Azimuth Distance (km) Brightness Sun altitude
Rises 04:48:09 0° 195° (SSW) 3,712 6.9 -23.5°
Reaches altitude 10° 04:50:42 10° 198° (SSW) 2,766 6.2 -23.1°
Maximum altitude 04:57:02 69° 281° (W) 1,067 3.9 -22.0°
Drops below altitude 10° 05:03:23 10° 5° (N) 2,768 6.4 -20.9°
Sets 05:05:56 0° 8° (N) 3,715 7.1 -20.5°
